When you browse on this site, cookies collect data to enhance your experience and personalize the content and advertising you see.
Visit our Privacy Policy to learn more. By continuing to use the site, you agree to this use of cookies and data.
  • în România
  • Lista ţărilor
  • Pe 7 zile
  • Temperatura apei
  • Hartă satelitară
  • Meteo pe hartă
  • Widget-uri
  • user-avatar
    Intrare

    Meteo pe oră la Samochevka

    Astăzi, 27 Martie, Miercuri

    Timp Temperatura Precipitaţii Vânt Presiune Umiditate
    00:00 -5°C° 0 mm 2 m/s 738 mmHg 90%
    01:00 -6°C° 0 mm 2 m/s 738 mmHg 89%
    02:00 -6°C° 0 mm 2 m/s 739 mmHg 88%
    03:00 -7°C° 0 mm 2 m/s 739 mmHg 87%
    04:00 -7°C° 0 mm 2 m/s 739 mmHg 87%
    05:00 -7°C° 0 mm 2 m/s 739 mmHg 86%
    06:00 -7°C° 0 mm 2 m/s 739 mmHg 86%
    07:00 -4°C° 0 mm 1 m/s 740 mmHg 86%
    08:00 -3°C° 0 mm 1 m/s 740 mmHg 86%
    09:00 -2°C° 0 mm 1 m/s 741 mmHg 86%
    10:00 -1°C° 0 mm 1 m/s 741 mmHg 88%
    11:00 0°C° 0 mm 1 m/s 742 mmHg 90%
    12:00 +1°C° 0 mm 1 m/s 742 mmHg 92%
    13:00 +1°C° 0 mm 1 m/s 742 mmHg 95%
    14:00 +1°C° 0 mm 1 m/s 742 mmHg 97%
    15:00 +1°C° 0 mm 1 m/s 743 mmHg 100%
    16:00 -2°C° 0 mm 2 m/s 743 mmHg 97%
    17:00 -2°C° 0 mm 2 m/s 743 mmHg 94%
    18:00 -3°C° 0 mm 2 m/s 743 mmHg 91%
    19:00 -4°C° 0 mm 2 m/s 743 mmHg 89%
    20:00 -4°C° 0 mm 2 m/s 744 mmHg 88%
    21:00 -6°C° 0 mm 3 m/s 744 mmHg 86%
    22:00 -7°C° 0 mm 3 m/s 744 mmHg 87%
    23:00 -7°C° 0 mm 3 m/s 744 mmHg 87%

    Mâine, 28 Martie, Joi

    Timp Temperatura Precipitaţii Vânt Presiune Umiditate
    00:00 -7°C° 0 mm 3 m/s 744 mmHg 88%
    01:00 -8°C° 0 mm 3 m/s 745 mmHg 90%
    02:00 -8°C° 0 mm 3 m/s 745 mmHg 92%
    03:00 -8°C° 0 mm 3 m/s 745 mmHg 93%
    04:00 -8°C° 0 mm 3 m/s 745 mmHg 94%
    05:00 -7°C° 0 mm 3 m/s 745 mmHg 94%
    06:00 -7°C° 0 mm 4 m/s 745 mmHg 95%
    07:00 -7°C° 0 mm 4 m/s 746 mmHg 94%
    08:00 -5°C° 0 mm 4 m/s 746 mmHg 93%
    09:00 -6°C° 0 mm 5 m/s 746 mmHg 92%
    10:00 -5°C° 0.1 mm 5 m/s 747 mmHg 91%
    11:00 -4°C° 0.1 mm 5 m/s 747 mmHg 89%
    12:00 -2°C° 0.1 mm 5 m/s 747 mmHg 88%
    13:00 -2°C° 0.1 mm 5 m/s 747 mmHg 89%
    14:00 -2°C° 0.1 mm 5 m/s 747 mmHg 89%
    15:00 -2°C° 0.1 mm 5 m/s 747 mmHg 90%
    16:00 -2°C° 0.1 mm 5 m/s 748 mmHg 89%
    17:00 -3°C° 0.1 mm 4 m/s 748 mmHg 89%
    18:00 -4°C° 0.1 mm 4 m/s 748 mmHg 88%
    19:00 -4°C° 0 mm 4 m/s 748 mmHg 88%
    20:00 -5°C° 0 mm 3 m/s 748 mmHg 88%
    21:00 -6°C° 0 mm 3 m/s 749 mmHg 89%
    22:00 -7°C° 0 mm 3 m/s 749 mmHg 88%
    23:00 -6°C° 0 mm 2 m/s 749 mmHg 88%

    Poimâine, 29 Martie, Vineri

    Timp Temperatura Precipitaţii Vânt Presiune Umiditate
    00:00 -6°C° 0 mm 2 m/s 749 mmHg 87%
    01:00 -7°C° 0 mm 2 m/s 749 mmHg 87%
    02:00 -7°C° 0 mm 2 m/s 749 mmHg 87%
    03:00 -7°C° 0 mm 2 m/s 748 mmHg 87%
    04:00 -7°C° 0 mm 2 m/s 748 mmHg 86%
    05:00 -8°C° 0 mm 3 m/s 748 mmHg 86%
    06:00 -7°C° 0 mm 3 m/s 748 mmHg 85%
    07:00 -6°C° 0 mm 3 m/s 748 mmHg 86%
    08:00 -5°C° 0 mm 3 m/s 748 mmHg 87%
    09:00 -4°C° 0 mm 3 m/s 747 mmHg 87%
    10:00 -2°C° 0.1 mm 3 m/s 747 mmHg 91%
    11:00 -2°C° 0.1 mm 3 m/s 747 mmHg 95%
    12:00 -1°C° 0.1 mm 3 m/s 747 mmHg 100%
    13:00 -1°C° 0.1 mm 3 m/s 746 mmHg 99%
    14:00 0°C° 0.1 mm 3 m/s 746 mmHg 99%
    15:00 0°C° 0.1 mm 3 m/s 746 mmHg 99%
    16:00 0°C° 0 mm 3 m/s 745 mmHg 99%
    17:00 +1°C° 0 mm 2 m/s 745 mmHg 99%
    18:00 +1°C° 0 mm 2 m/s 745 mmHg 99%
    19:00 -1°C° 0 mm 2 m/s 745 mmHg 99%
    20:00 -1°C° 0 mm 2 m/s 745 mmHg 98%
    21:00 -1°C° 0 mm 2 m/s 745 mmHg 98%
    22:00 -1°C° 0 mm 2 m/s 744 mmHg 97%
    23:00 -2°C° 0 mm 2 m/s 744 mmHg 95%

    30 Martie, Sâmbătă

    Timp Temperatura Precipitaţii Vânt Presiune Umiditate
    00:00 -2°C° 0 mm 3 m/s 744 mmHg 94%
    01:00 -2°C° 0 mm 3 m/s 743 mmHg 93%
    02:00 -2°C° 0 mm 3 m/s 743 mmHg 92%
    03:00 -2°C° 0 mm 3 m/s 743 mmHg 91%
    04:00 -2°C° 0 mm 3 m/s 742 mmHg 92%
    05:00 -2°C° 0 mm 3 m/s 742 mmHg 93%
    06:00 -2°C° 0 mm 3 m/s 742 mmHg 94%
    07:00 -2°C° 0 mm 4 m/s 741 mmHg 96%
    08:00 -1°C° 0 mm 4 m/s 741 mmHg 98%
    09:00 -1°C° 0 mm 4 m/s 741 mmHg 99%
    10:00 0°C° 0 mm 4 m/s 741 mmHg 99%
    11:00 0°C° 0 mm 4 m/s 741 mmHg 99%
    12:00 0°C° 0 mm 4 m/s 741 mmHg 99%
    13:00 0°C° 0 mm 4 m/s 740 mmHg 99%
    14:00 0°C° 0 mm 4 m/s 740 mmHg 99%
    15:00 +1°C° 0 mm 3 m/s 740 mmHg 99%
    16:00 +1°C° 0 mm 3 m/s 740 mmHg 99%
    17:00 +1°C° 0 mm 3 m/s 740 mmHg 99%
    18:00 +2°C° 0 mm 2 m/s 741 mmHg 98%
    19:00 +2°C° 0 mm 2 m/s 741 mmHg 98%
    20:00 +2°C° 0 mm 2 m/s 741 mmHg 97%
    21:00 +1°C° 0 mm 2 m/s 742 mmHg 96%
    22:00 +1°C° 0 mm 2 m/s 742 mmHg 95%
    23:00 0°C° 0 mm 3 m/s 742 mmHg 93%

    31 Martie, Duminică

    Timp Temperatura Precipitaţii Vânt Presiune Umiditate
    00:00 0°C° 0 mm 3 m/s 742 mmHg 92%
    01:00 0°C° 0 mm 3 m/s 742 mmHg 91%
    02:00 0°C° 0 mm 3 m/s 742 mmHg 91%
    03:00 0°C° 0 mm 3 m/s 742 mmHg 90%
    04:00 0°C° 0 mm 3 m/s 743 mmHg 91%
    05:00 -1°C° 0 mm 2 m/s 743 mmHg 91%
    06:00 -1°C° 0 mm 2 m/s 743 mmHg 91%
    07:00 +1°C° 0 mm 2 m/s 743 mmHg 94%
    08:00 +1°C° 0 mm 2 m/s 743 mmHg 97%
    09:00 +1°C° 0 mm 2 m/s 744 mmHg 99%
    10:00 +2°C° 0 mm 2 m/s 744 mmHg 99%
    11:00 +2°C° 0 mm 2 m/s 743 mmHg 99%
    12:00 +1°C° 0 mm 3 m/s 743 mmHg 99%
    13:00 +2°C° 0 mm 3 m/s 743 mmHg 99%
    14:00 +2°C° 0 mm 3 m/s 743 mmHg 99%
    15:00 +1°C° 0 mm 4 m/s 743 mmHg 99%
    16:00 +1°C° 0 mm 4 m/s 742 mmHg 99%
    17:00 +1°C° 0 mm 4 m/s 742 mmHg 98%
    18:00 +1°C° 0 mm 4 m/s 742 mmHg 98%
    19:00 +1°C° 0 mm 4 m/s 742 mmHg 98%
    20:00 0°C° 0 mm 4 m/s 742 mmHg 98%
    21:00 0°C° 0 mm 4 m/s 743 mmHg 98%
    22:00 0°C° 0 mm 4 m/s 743 mmHg 96%
    23:00 +1°C° 0 mm 3 m/s 743 mmHg 95%

    1 Aprilie, Luni

    Timp Temperatura Precipitaţii Vânt Presiune Umiditate
    00:00 0°C° 0 mm 3 m/s 743 mmHg 93%
    01:00 +1°C° 0 mm 3 m/s 742 mmHg 91%
    02:00 +1°C° 0 mm 3 m/s 742 mmHg 88%
    03:00 +1°C° 0 mm 3 m/s 742 mmHg 85%
    04:00 +1°C° 0 mm 3 m/s 742 mmHg 85%
    05:00 +1°C° 0 mm 3 m/s 742 mmHg 85%
    06:00 0°C° 0 mm 4 m/s 742 mmHg 84%
    07:00 0°C° 0 mm 4 m/s 742 mmHg 86%
    08:00 +1°C° 0 mm 4 m/s 741 mmHg 88%
    09:00 +3°C° 0 mm 4 m/s 741 mmHg 90%
    10:00 +4°C° 0 mm 4 m/s 741 mmHg 88%
    11:00 +5°C° 0 mm 5 m/s 741 mmHg 87%
    12:00 +6°C° 0 mm 5 m/s 741 mmHg 85%
    13:00 +7°C° 0 mm 5 m/s 741 mmHg 84%
    14:00 +7°C° 0 mm 4 m/s 741 mmHg 82%
    15:00 +8°C° 0 mm 4 m/s 741 mmHg 80%
    16:00 +7°C° 0 mm 4 m/s 741 mmHg 83%
    17:00 +7°C° 0 mm 3 m/s 741 mmHg 85%
    18:00 +7°C° 0 mm 3 m/s 741 mmHg 87%
    19:00 +5°C° 0 mm 3 m/s 741 mmHg 86%
    20:00 +5°C° 0 mm 3 m/s 742 mmHg 86%
    21:00 +4°C° 0 mm 3 m/s 742 mmHg 85%
    22:00 +3°C° 0 mm 3 m/s 742 mmHg 84%
    23:00 +2°C° 0 mm 3 m/s 743 mmHg 82%
    Arată mai mult